Regional Weather Roundup
Issued by NWS Green Bay, WI

Home | Current Version | Previous Version | Graphics & Text | Print | Product List | Glossary Off
Versions: 1 2 3 4 5 6 7 8 9 10 11 12 13 14 15 16 17 18 19 20 21 22 23 24 25 26 27 28 29 30 31 32 33 34 35 36 37 38 39 40 41 42 43 44 45 46 47 48 49 50

000
ASUS43 KGRB 271611
RWRGRB

NORTH-CENTRAL AND NORTHEAST WISCONSIN REGIONAL WEATHER ROUNDUP
NATIONAL WEATHER SERVICE GREEN BAY WI
1100 AM CDT THU AUG 27 2015

WIZ005-009-010>012-018-019-271700-
NORTH CENTRAL WISCONSIN

CITY           SKY/WX    TMP DP  RH WIND       PRES   REMARKS
IRONWOOD       SUNNY     66  46  48 SW6       30.10F
MANITOWISH WTR SUNNY     64  53  66 SW6       30.15S
ARBOR VITAE    SUNNY     65  53  65 SW7       30.15S
EAGLE RIVER    SUNNY     63  51  64 SW5       30.15F
LAND O LAKES   SUNNY     64  51  62 SW3       30.16F
RHINELANDER    SUNNY     66  53  63 SW7       30.17S
PHILLIPS       MOSUNNY   67  55  66 S6        30.15R
ANTIGO         SUNNY     66  54  64 SW3       30.17F
TOMAHAWK       SUNNY     65  53  65 CALM      30.16F
MERRILL        SUNNY     67  56  69 CALM      30.17S
$$

WIZ013-073-271700-
NORTHEAST WISCONSIN

CITY           SKY/WX    TMP DP  RH WIND       PRES   REMARKS
IRON MOUNTAIN  CLOUDY    58  53  84 CALM      30.16S
MARINETTE      SUNNY     63  54  72 CALM      30.16S
OCONTO         CLOUDY    56  56 100 W5        30.18R
$$

WIZ017-030-035>037-045-271700-
CENTRAL WISCONSIN

CITY           SKY/WX    TMP DP  RH WIND       PRES   REMARKS
MEDFORD        SUNNY     66  56  70 S8        30.17R
WAUSAU         SUNNY     67  55  65 VRB3      30.15F
MOSINEE        NOT AVBL
MARSHFIELD     SUNNY     70  54  56 S10       30.16S
WISC RAPIDS    SUNNY     69  55  60 SW8       30.17F
STEVENS POINT  SUNNY     67  53  61 S7        30.17S
WAUPACA        SUNNY     70  57  62 CALM      30.17F
SHAWANO        PTSUNNY   58  57  96 CALM      30.18F
CLINTONVILLE   MOSUNNY   61  59  94 CALM      30.18S
WAUTOMA        SUNNY     71  56  59 SW5       30.18S
$$

WIZ038-039-048-051-271700-
FOX VALLEY

CITY           SKY/WX    TMP DP  RH WIND       PRES   REMARKS
NWS GREEN BAY  MOSUNNY   63  58  83 CALM      30.18S
APPLETON       SUNNY     66  57  72 CALM      30.16F
OSHKOSH        SUNNY     68  58  70 SW5       30.17F
FOND DU LAC    SUNNY     68  59  73 CALM      30.17F
$$

WIZ022-050-052-271700-
EAST CENTRAL WISCONSIN

CITY           SKY/WX    TMP DP  RH WIND       PRES   REMARKS
EPHRAIM        FAIR      67  58  72 S3        30.15S
STURGEON BAY   SUNNY     63  55  77 SW3       30.20R
MANITOWOC      SUNNY     66  58  75 MISG      30.18S
SHEBOYGAN      SUNNY     69  59  70 VRB3      30.17F
$$

LMZ563-521-522-541>543-271700-
LAKESHORE

STATION/POSITION TIME  TEMP    WIND        PRES    VSBY  WAVE
                       AIR SEA DIR/SP/G                  HT/PER
                 (UTC) (F)     (DEG/KT/KT) (MB)    (MI)  (FT/S)
SHEBOYGAN LKSHOR 1600   57     180/ 14/ 14 1022.3F
KEWAUNEE LKSHORE 1500   52     160/  5/  6 1020.6F
ALGOMA MARINA    1514             CALM       N/A
NORTHPORT PIER   1500   61     110/  5/  7 1021.7S
N MID LAKE BUOY  1550   61 64  100/  6/  8 1021.5F         0
S GREEN BAY BUOY 1600   55     250/  6/  8 1023.2R
SISTER BAY LKSHO 1549   67     130/  8/ 11   N/A
CHAMBERS ISLAND  1500   60      70/  5/  6 1021.3F
MENOMINEE LKSHOR 1500   56      30/  3/  3 1020.1F
$$



USA.gov is the U.S. government's official web portal to all federal, state and local government web resources and services.